Terminal Aerodrome Forecast
Issued by NWS Spokane, WA

Home | Current Version | Previous Version | Text Only | Print | Product List | Glossary On
Versions: 1 2 3 4 5 6 7 8 9 10 11 12 13 14 15 16 17 18 19 20 21 22 23 24 25
000
FTUS46 KOTX 302328
TAFGEG
TAF
KGEG 302328Z 3100/3124 25010KT P6SM SKC
     FM310700 09004KT P6SM SKC
     FM312100 22008KT P6SM SKC=

USA.gov is the U.S. government's official web portal to all federal, state and local government web resources and services.